| time (UTC) | temp F | wind direction | speed knots | gust knots | rain 1hr in | rain 24hr in | rain mn in | humidity % | barometer mb |
| 20260504035931 | 50 | 187 | 2.6 | 8.7 | 0.00 | 0.00 | 0.00 | 69 | 1007.6 |
| 20260504035429 | 50 | 218 | 3.5 | 6.1 | 0.00 | 0.00 | 0.00 | 69 | 1007.6 |
| 20260504034926 | 50 | 199 | 3.5 | 8.7 | 0.00 | 0.00 | 0.00 | 69 | 1007.8 |
| 20260504034423 | 50 | 272 | 2.6 | 4.3 | 0.00 | 0.00 | 0.00 | 69 | 1007.5 |
| 20260504033920 | 51 | 185 | 3.5 | 6.1 | 0.00 | 0.00 | 0.00 | 68 | 1007.6 |
| 20260504033418 | 51 | 173 | 2.6 | 9.6 | 0.00 | 0.00 | 0.00 | 68 | 1007.9 |
| 20260504032915 | 51 | 212 | 2.6 | 9.6 | 0.00 | 0.00 | 0.00 | 68 | 1007.9 |
| 20260504032411 | 51 | 199 | 3.5 | 6.1 | 0.00 | 0.00 | 0.00 | 69 | 1007.9 |
| 20260504031908 | 51 | 200 | 1.7 | 3.5 | 0.00 | 0.00 | 0.00 | 69 | 1007.9 |
| 20260504031405 | 51 | 220 | 3.5 | 6.1 | 0.00 | 0.00 | 0.00 | 68 | 1008.2 |
| 20260504030902 | 51 | 151 | 2.6 | 6.1 | 0.00 | 0.00 | 0.00 | 68 | 1007.9 |
| 20260504030359 | 51 | 155 | 4.3 | 7.8 | 0.00 | 0.00 | 0.00 | 68 | 1007.8 |
| 20260504025855 | 51 | 194 | 1.7 | 7.0 | 0.00 | 0.00 | 0.00 | 68 | 1008.1 |
| 20260504025352 | 51 | 155 | 2.6 | 6.1 | 0.00 | 0.00 | 0.00 | 68 | 1008.0 |
| 20260504024849 | 51 | 151 | 0.9 | 6.1 | 0.00 | 0.00 | 0.00 | 68 | 1008.0 |
| 20260504024345 | 51 | 176 | 1.7 | 7.0 | 0.00 | 0.00 | 0.00 | 67 | 1008.2 |
| 20260504023842 | 51 | 209 | 3.5 | 7.0 | 0.00 | 0.00 | 0.00 | 67 | 1008.2 |
| 20260504023339 | 51 | 185 | 5.2 | 7.8 | 0.00 | 0.00 | 0.00 | 67 | 1008.3 |
| 20260504022834 | 51 | 199 | 1.7 | 10.4 | 0.00 | 0.00 | 0.00 | 67 | 1008.2 |
| 20260504022332 | 51 | 166 | 0.9 | 8.7 | 0.00 | 0.00 | 0.00 | 67 | 1008.2 |
| 20260504021828 | 51 | 166 | 2.6 | 7.0 | 0.00 | 0.00 | 0.00 | 67 | 1008.2 |
| 20260504021326 | 51 | 147 | 1.7 | 4.3 | 0.00 | 0.00 | 0.00 | 66 | 1008.4 |
| 20260504020822 | 51 | 201 | 1.7 | 4.3 | 0.00 | 0.00 | 0.00 | 66 | 1008.4 |
| 20260504020319 | 52 | 196 | 2.6 | 7.8 | 0.00 | 0.00 | 0.00 | 66 | 1008.4 |
| 20260504015815 | 52 | 177 | 2.6 | 6.1 | 0.00 | 0.00 | 0.00 | 66 | 1008.5 |
| 20260504015311 | 51 | 89 | 0.9 | 5.2 | 0.00 | 0.00 | 0.00 | 66 | 1008.6 |
| 20260504014808 | 52 | 144 | 3.5 | 5.2 | 0.00 | 0.00 | 0.00 | 65 | 1008.5 |
| 20260504014304 | 52 | 171 | 1.7 | 3.5 | 0.00 | 0.00 | 0.00 | 66 | 1008.3 |
| 20260504013802 | 52 | 176 | 2.6 | 5.2 | 0.00 | 0.00 | 0.00 | 65 | 1008.4 |
| 20260504013259 | 52 | 142 | 0.9 | 4.3 | 0.00 | 0.00 | 0.00 | 65 | 1008.5 |
| 20260504012755 | 52 | 186 | 3.5 | 5.2 | 0.00 | 0.00 | 0.00 | 64 | 1008.4 |
| 20260504012254 | 52 | 153 | 2.6 | 5.2 | 0.00 | 0.00 | 0.00 | 65 | 1008.3 |
| 20260504011750 | 52 | 107 | 4.3 | 7.8 | 0.00 | 0.00 | 0.00 | 65 | 1008.3 |
| 20260504011247 | 53 | 136 | 0.9 | 6.1 | 0.00 | 0.00 | 0.00 | 64 | 1008.3 |
| 20260504010743 | 53 | 194 | 3.5 | 6.1 | 0.00 | 0.00 | 0.00 | 64 | 1008.4 |
| 20260504010238 | 53 | 225 | 4.3 | 9.6 | 0.00 | 0.00 | 0.00 | 64 | 1008.3 |
| 20260504005735 | 53 | 156 | 1.7 | 2.6 | 0.00 | 0.00 | 0.00 | 64 | 1008.5 |
| 20260504005233 | 53 | 186 | 2.6 | 7.0 | 0.00 | 0.00 | 0.00 | 63 | 1008.5 |
| 20260504004730 | 53 | 171 | 4.3 | 7.0 | 0.00 | 0.00 | 0.00 | 63 | 1008.5 |
| 20260504004227 | 53 | 165 | 1.7 | 6.1 | 0.00 | 0.00 | 0.00 | 63 | 1008.6 |
| 20260504003724 | 53 | 182 | 4.3 | 7.0 | 0.00 | 0.00 | 0.00 | 62 | 1008.5 |
| 20260504003221 | 53 | 192 | 2.6 | 7.8 | 0.00 | 0.00 | 0.00 | 63 | 1008.6 |
| 20260504002717 | 54 | 184 | 2.6 | 6.1 | 0.00 | 0.00 | 0.00 | 62 | 1008.6 |
| 20260504002214 | 54 | 174 | 5.2 | 7.8 | 0.00 | 0.00 | 0.00 | 61 | 1008.7 |
| 20260504001713 | 54 | 192 | 1.7 | 6.1 | 0.00 | 0.00 | 0.00 | 61 | 1008.7 |
| 20260504001209 | 55 | 174 | 7.0 | 9.6 | 0.00 | 0.00 | 0.00 | 60 | 1008.5 |
| 20260504000706 | 55 | 172 | 5.2 | 11.3 | 0.00 | 0.00 | 0.00 | 59 | 1008.9 |
| 20260504000204 | 55 | 173 | 10.4 | 11.3 | 0.00 | 0.00 | 0.00 | 59 | 1008.9 |
| 20260503235701 | 55 | 193 | 4.3 | 13.9 | 0.00 | 0.00 | 0.00 | 58 | 1008.5 |
| 20260503235157 | 56 | 186 | 7.0 | 13.9 | 0.00 | 0.00 | 0.00 | 58 | 1008.5 |
| 20260503234655 | 56 | 180 | 2.6 | 9.6 | 0.00 | 0.00 | 0.00 | 58 | 1008.5 |
| 20260503234154 | 57 | 165 | 5.2 | 13.0 | 0.00 | 0.00 | 0.00 | 57 | 1008.4 |
| 20260503233650 | 57 | 186 | 3.5 | 9.6 | 0.00 | 0.00 | 0.00 | 57 | 1008.4 |
| 20260503233146 | 57 | 191 | 4.3 | 9.6 | 0.00 | 0.00 | 0.00 | 56 | 1008.6 |
| 20260503232643 | 57 | 206 | 0.9 | 7.8 | 0.00 | 0.00 | 0.00 | 55 | 1008.4 |
| 20260503232140 | 57 | 160 | 1.7 | 7.0 | 0.00 | 0.00 | 0.00 | 55 | 1008.3 |
| 20260503231638 | 57 | 129 | 1.7 | 6.1 | 0.00 | 0.00 | 0.00 | 54 | 1008.2 |
| 20260503231134 | 58 | 185 | 7.8 | 13.0 | 0.00 | 0.00 | 0.00 | 52 | 1008.3 |
| 20260503230631 | 58 | 179 | 8.7 | 11.3 | 0.00 | 0.00 | 0.00 | 51 | 1008.6 |
| 20260503230128 | 58 | 160 | 3.5 | 10.4 | 0.00 | 0.00 | 0.00 | 51 | 1008.5 |
| 20260503225626 | 58 | 180 | 4.3 | 10.4 | 0.00 | 0.00 | 0.00 | 50 | 1008.6 |
| 20260503225125 | 58 | 180 | 6.1 | 13.9 | 0.00 | 0.00 | 0.00 | 49 | 1008.6 |
| 20260503224623 | 58 | 190 | 2.6 | 10.4 | 0.00 | 0.00 | 0.00 | 49 | 1008.7 |
| 20260503224121 | 59 | 208 | 5.2 | 9.6 | 0.00 | 0.00 | 0.00 | 49 | 1008.9 |
| 20260503223619 | 59 | 177 | 3.5 | 7.8 | 0.00 | 0.00 | 0.00 | 49 | 1008.8 |
| 20260503223114 | 59 | 186 | 2.6 | 7.0 | 0.00 | 0.00 | 0.00 | 48 | 1008.8 |
| 20260503222612 | 59 | 195 | 3.5 | 6.1 | 0.00 | 0.00 | 0.00 | 48 | 1008.8 |
| 20260503222110 | 59 | 179 | 3.5 | 9.6 | 0.00 | 0.00 | 0.00 | 47 | 1008.7 |
| 20260503221608 | 60 | 200 | 3.5 | 9.6 | 0.00 | 0.00 | 0.00 | 47 | 1008.7 |
| 20260503221105 | 60 | 172 | 4.3 | 8.7 | 0.00 | 0.00 | 0.00 | 47 | 1008.7 |
| 20260503220601 | 60 | 185 | 2.6 | 10.4 | 0.00 | 0.00 | 0.00 | 47 | 1008.7 |
| 20260503220058 | 61 | 43 | 1.7 | 7.0 | 0.00 | 0.00 | 0.00 | 46 | 1008.8 |
| 20260503215555 | 61 | 180 | 3.5 | 11.3 | 0.00 | 0.00 | 0.00 | 46 | 1008.7 |
| 20260503215052 | 62 | 188 | 3.5 | 6.1 | 0.00 | 0.00 | 0.00 | 44 | 1008.7 |
| 20260503214550 | 62 | 225 | 1.7 | 8.7 | 0.00 | 0.00 | 0.00 | 43 | 1008.6 |
| 20260503214046 | 61 | 175 | 6.1 | 7.8 | 0.00 | 0.00 | 0.00 | 45 | 1008.7 |
| 20260503213545 | 61 | 191 | 5.2 | 7.8 | 0.00 | 0.00 | 0.00 | 45 | 1008.7 |
| 20260503213041 | 61 | 180 | 0.9 | 7.8 | 0.00 | 0.00 | 0.00 | 45 | 1008.8 |
| 20260503212539 | 61 | 210 | 4.3 | 12.2 | 0.00 | 0.00 | 0.00 | 45 | 1008.8 |
| 20260503212036 | 62 | 215 | 4.3 | 7.8 | 0.00 | 0.00 | 0.00 | 44 | 1008.5 |
| 20260503211533 | 61 | 185 | 3.5 | 14.8 | 0.00 | 0.00 | 0.00 | 44 | 1008.7 |
| 20260503211028 | 61 | 191 | 6.1 | 12.2 | 0.00 | 0.00 | 0.00 | 44 | 1008.6 |
| 20260503210526 | 62 | 167 | 4.3 | 13.0 | 0.00 | 0.00 | 0.00 | 43 | 1008.8 |
| 20260503210021 | 63 | 180 | 4.3 | 13.9 | 0.00 | 0.00 | 0.00 | 42 | 1008.7 |
| 20260503205518 | 62 | 233 | 2.6 | 7.0 | 0.00 | 0.00 | 0.00 | 44 | 1008.8 |
| 20260503205015 | 62 | 159 | 2.6 | 13.0 | 0.00 | 0.00 | 0.00 | 42 | 1008.8 |
| 20260503204512 | 64 | 181 | 4.3 | 8.7 | 0.00 | 0.00 | 0.00 | 41 | 1008.8 |
| 20260503204009 | 65 | 183 | 3.5 | 9.6 | 0.00 | 0.00 | 0.00 | 40 | 1008.5 |
| 20260503203506 | 64 | 240 | 1.7 | 9.6 | 0.00 | 0.00 | 0.00 | 39 | 1008.8 |
| 20260503203003 | 63 | 182 | 6.1 | 11.3 | 0.00 | 0.00 | 0.00 | 40 | 1008.9 |
| 20260503202501 | 63 | 178 | 1.7 | 17.4 | 0.00 | 0.00 | 0.00 | 41 | 1009.0 |
| 20260503201959 | 66 | 198 | 7.0 | 10.4 | 0.00 | 0.00 | 0.00 | 38 | 1008.8 |
| 20260503201456 | 65 | 205 | 3.5 | 10.4 | 0.00 | 0.00 | 0.00 | 38 | 1008.9 |
| 20260503200953 | 65 | 327 | 5.2 | 11.3 | 0.00 | 0.00 | 0.00 | 41 | 1008.9 |
| 20260503200449 | 65 | 204 | 1.7 | 7.8 | 0.00 | 0.00 | 0.00 | 40 | 1009.0 |
| 20260503195946 | 64 | 119 | 3.5 | 10.4 | 0.00 | 0.00 | 0.00 | 40 | 1009.1 |
| 20260503195444 | 64 | 199 | 12.2 | 14.8 | 0.00 | 0.00 | 0.00 | 38 | 1009.1 |
| 20260503194940 | 64 | 314 | 1.7 | 13.0 | 0.00 | 0.00 | 0.00 | 38 | 1009.3 |
| 20260503194437 | 65 | 194 | 1.7 | 13.0 | 0.00 | 0.00 | 0.00 | 38 | 1009.2 |
| 20260503193932 | 65 | 172 | 5.2 | 13.0 | 0.00 | 0.00 | 0.00 | 39 | 1009.1 |
| 20260503193428 | 64 | 212 | 7.0 | 10.4 | 0.00 | 0.00 | 0.00 | 39 | 1009.2 |
| 20260503192924 | 64 | 145 | 4.3 | 9.6 | 0.00 | 0.00 | 0.00 | 39 | 1009.5 |
| 20260503192421 | 62 | 288 | 2.6 | 7.8 | 0.00 | 0.00 | 0.00 | 39 | 1009.6 |
| 20260503191916 | 64 | 191 | 3.5 | 7.8 | 0.00 | 0.00 | 0.00 | 40 | 1009.5 |
| 20260503191414 | 65 | 157 | 4.3 | 7.8 | 0.00 | 0.00 | 0.00 | 39 | 1009.4 |
| 20260503190910 | 63 | 192 | 9.6 | 18.2 | 0.00 | 0.00 | 0.00 | 39 | 1009.6 |
| 20260503190408 | 64 | 237 | 1.7 | 12.2 | 0.00 | 0.00 | 0.00 | 39 | 1009.7 |
| 20260503185904 | 62 | 121 | 2.6 | 5.2 | 0.00 | 0.00 | 0.00 | 43 | 1009.6 |
| 20260503185401 | 62 | 187 | 4.3 | 7.8 | 0.00 | 0.00 | 0.00 | 43 | 1009.7 |
| 20260503184900 | 62 | 251 | 0.0 | 7.8 | 0.00 | 0.00 | 0.00 | 43 | 1010.2 |
| 20260503184356 | 63 | 200 | 1.7 | 8.7 | 0.00 | 0.00 | 0.00 | 42 | 1010.1 |
| 20260503183853 | 65 | 252 | 4.3 | 13.0 | 0.00 | 0.00 | 0.00 | 40 | 1010.2 |
| 20260503183350 | 65 | 239 | 1.7 | 9.6 | 0.00 | 0.00 | 0.00 | 42 | 1009.8 |
| 20260503182847 | 63 | 170 | 2.6 | 9.6 | 0.00 | 0.00 | 0.00 | 45 | 1010.3 |
| 20260503182346 | 61 | 192 | 7.8 | 18.2 | 0.00 | 0.00 | 0.00 | 44 | 1010.3 |
| 20260503181842 | 62 | 320 | 4.3 | 7.8 | 0.00 | 0.00 | 0.00 | 43 | 1010.4 |
| 20260503181340 | 64 | 193 | 4.3 | 6.1 | 0.00 | 0.00 | 0.00 | 42 | 1010.4 |
| 20260503180836 | 63 | 247 | 3.5 | 8.7 | 0.00 | 0.00 | 0.00 | 43 | 1010.4 |
| 20260503180334 | 63 | 271 | 2.6 | 8.7 | 0.00 | 0.00 | 0.00 | 44 | 1010.7 |
| 20260503175830 | 62 | 314 | 0.9 | 13.0 | 0.00 | 0.00 | 0.00 | 44 | 1010.5 |
| 20260503175328 | 62 | 170 | 8.7 | 10.4 | 0.00 | 0.00 | 0.00 | 44 | 1010.7 |
| 20260503174823 | 62 | 161 | 3.5 | 4.3 | 0.00 | 0.00 | 0.00 | 46 | 1010.9 |
| 20260503174322 | 61 | 187 | 3.5 | 7.0 | 0.00 | 0.00 | 0.00 | 44 | 1010.8 |
| 20260503173817 | 62 | 213 | 2.6 | 10.4 | 0.00 | 0.00 | 0.00 | 44 | 1010.9 |
| 20260503173314 | 62 | 211 | 4.3 | 8.7 | 0.00 | 0.00 | 0.00 | 43 | 1011.1 |
| 20260503172810 | 63 | 191 | 6.1 | 7.0 | 0.00 | 0.00 | 0.00 | 43 | 1011.0 |
| 20260503172308 | 61 | 292 | 0.0 | 6.1 | 0.00 | 0.00 | 0.00 | 44 | 1011.1 |
| 20260503171804 | 60 | 271 | 4.3 | 8.7 | 0.00 | 0.00 | 0.00 | 44 | 1011.3 |
| 20260503171301 | 59 | 217 | 2.6 | 12.2 | 0.00 | 0.00 | 0.00 | 46 | 1011.1 |
| 20260503170758 | 59 | 170 | 3.5 | 10.4 | 0.00 | 0.00 | 0.00 | 45 | 1011.5 |
| 20260503170255 | 59 | 184 | 5.2 | 11.3 | 0.00 | 0.00 | 0.00 | 45 | 1011.3 |
| 20260503160217 | 56 | 180 | 7.8 | 11.3 | 0.00 | 0.00 | 0.00 | 46 | 1012.0 |
| 20260503150647 | 53 | 177 | 2.6 | 7.0 | 0.00 | 0.00 | 0.00 | 50 | 1012.7 |
| 20260503150143 | 53 | 177 | 0.0 | 6.1 | 0.00 | 0.00 | 0.00 | 50 | 1012.8 |
| 20260503140108 | 53 | 163 | 3.5 | 9.6 | 0.00 | 0.00 | 0.00 | 49 | 1012.8 |
| 20260503131037 | 49 | 175 | 5.2 | 9.6 | 0.00 | 0.00 | 0.00 | 54 | 1012.9 |
| 20260503130534 | 48 | 182 | 2.6 | 5.2 | 0.00 | 0.00 | 0.00 | 55 | 1013.0 |
| 20260503110425 | 42 | 189 | 1.7 | 11.3 | 0.00 | 0.00 | 0.00 | 59 | 1012.8 |
| 20260503090316 | 37 | 296 | 0.0 | 3.5 | 0.00 | 0.00 | 0.00 | 61 | 1013.7 |
| 20260503081243 | 38 | 169 | 0.0 | 4.3 | 0.00 | 0.00 | 0.00 | 60 | 1014.3 |
| 20260503080738 | 38 | 161 | 1.7 | 2.6 | 0.00 | 0.00 | 0.00 | 60 | 1014.1 |
| 20260503080236 | 38 | 166 | 0.9 | 5.2 | 0.00 | 0.00 | 0.00 | 60 | 1014.2 |
| 20260503072713 | 38 | 189 | 1.7 | 2.6 | 0.00 | 0.00 | 0.00 | 60 | 1014.4 |
| 20260503072209 | 38 | 150 | 1.7 | 4.3 | 0.00 | 0.00 | 0.00 | 59 | 1014.3 |
| 20260503071706 | 38 | 201 | 2.6 | 4.3 | 0.00 | 0.00 | 0.00 | 59 | 1014.4 |
| 20260503071203 | 38 | 155 | 0.0 | 3.5 | 0.00 | 0.00 | 0.00 | 60 | 1014.3 |
| 20260503070659 | 38 | 152 | 2.6 | 2.6 | 0.00 | 0.00 | 0.00 | 59 | 1014.4 |
| 20260503070158 | 38 | 162 | 1.7 | 5.2 | 0.00 | 0.00 | 0.00 | 59 | 1014.5 |
| 20260503060122 | 39 | 137 | 1.7 | 2.6 | 0.00 | 0.00 | 0.00 | 60 | 1014.9 |
| 20260503055114 | 39 | 152 | 1.7 | 3.5 | 0.00 | 0.00 | 0.00 | 61 | 1015.0 |
| 20260503054609 | 39 | 128 | 0.9 | 2.6 | 0.00 | 0.00 | 0.00 | 60 | 1014.9 |
| 20260503054106 | 39 | 181 | 1.7 | 4.3 | 0.00 | 0.00 | 0.00 | 59 | 1015.3 |
| 20260503053604 | 39 | 200 | 0.0 | 2.6 | 0.00 | 0.00 | 0.00 | 60 | 1015.0 |
| 20260503053102 | 39 | 157 | 1.7 | 2.6 | 0.00 | 0.00 | 0.00 | 60 | 1015.1 |
| 20260503052559 | 39 | 181 | 1.7 | 5.2 | 0.00 | 0.00 | 0.00 | 60 | 1015.1 |
| 20260503052055 | 39 | 136 | 1.7 | 2.6 | 0.00 | 0.00 | 0.00 | 60 | 1015.1 |
| 20260503051550 | 39 | 122 | 0.9 | 5.2 | 0.00 | 0.00 | 0.00 | 60 | 1015.3 |
| 20260503051049 | 39 | 167 | 2.6 | 6.1 | 0.00 | 0.00 | 0.00 | 60 | 1015.2 |
| 20260503050544 | 39 | 176 | 0.0 | 4.3 | 0.00 | 0.00 | 0.00 | 60 | 1015.2 |
| 20260503050042 | 39 | 179 | 1.7 | 3.5 | 0.00 | 0.00 | 0.00 | 61 | 1015.2 |
| 20260503045539 | 40 | 148 | 1.7 | 5.2 | 0.00 | 0.00 | 0.00 | 60 | 1015.2 |
| 20260503045036 | 39 | 148 | 2.6 | 3.5 | 0.00 | 0.00 | 0.00 | 61 | 1015.4 |
| 20260503044532 | 39 | 166 | 1.7 | 5.2 | 0.00 | 0.00 | 0.00 | 61 | 1015.3 |
| 20260503044030 | 39 | 161 | 1.7 | 4.3 | 0.00 | 0.00 | 0.00 | 61 | 1015.2 |
| 20260503043526 | 39 | 165 | 1.7 | 4.3 | 0.00 | 0.00 | 0.00 | 62 | 1015.3 |
| 20260503043023 | 39 | 180 | 1.7 | 2.6 | 0.00 | 0.00 | 0.00 | 62 | 1015.1 |
| 20260503042520 | 40 | 194 | 1.7 | 4.3 | 0.00 | 0.00 | 0.00 | 62 | 1015.1 |
| 20260503042016 | 39 | 157 | 1.7 | 3.5 | 0.00 | 0.00 | 0.00 | 62 | 1015.2 |
| 20260503041513 | 40 | 192 | 1.7 | 2.6 | 0.00 | 0.00 | 0.00 | 62 | 1015.3 |
| 20260503041011 | 40 | 180 | 2.6 | 3.5 | 0.00 | 0.00 | 0.00 | 62 | 1015.5 |
| 20260503040508 | 40 | 156 | 1.7 | 3.5 | 0.00 | 0.00 | 0.00 | 62 | 1015.1 |
| 20260503040005 | 40 | 151 | 0.9 | 4.3 | 0.00 | 0.00 | 0.00 | 62 | 1015.2 |